Plovdiv, Bulgaria

7:34 AM EET on December 10, 2019 (GMT +0200)
Plovdiv

Weather History for LBPD - October, 2019

Change the Weather History Date:

Tuesday, October 22, 2019

  Actual Average Record
Temperature  
Mean Temperature 63 °F -  
Max Temperature 80 °F - - ()
Min Temperature 46 °F - - ()
Degree Days  
Heating Degree Days 2    
Growing Degree Days 13 (Base 50)    
Moisture  
Dew Point 46 °F    
Average Humidity 57    
Maximum Humidity 93    
Minimum Humidity 28    
Precipitation  
Precipitation 0.00 in - - ()
Sea Level Pressure  
Sea Level Pressure 30.23 in    
Wind  
Wind Speed 3 mph ()    
Max Wind Speed 10 mph    
Max Gust Speed -    
Visibility 6.2 miles    
Events      
T = Trace of Precipitation, MM = Missing Value Source: Averaged Metar Reports

Daily Weather History Graph

Daily Weather History Graph

Search for Another Location

Airport or City:

Astronomy

Oct. 22, 2019 Rise Set
Actual Time 7:41 AM EEST 6:29 PM EEST
Civil Twilight 7:12 AM EEST 6:57 PM EEST
Nautical Twilight 6:40 AM EEST 7:30 PM EEST
Astronomical Twilight 6:07 AM EEST 8:02 PM EEST
Moon 12:20 AM EEST (10/22) 3:32 PM EEST (10/22)
Length of Visible Light 11h 45m
Length of Day
10h 48m
Last Quarter, 40% of the Moon is Illuminated
Oct 22
Last Quarter
Oct 28
New
Nov 4
First Quarter
Nov 12
Full
Nov 19
Last Quarter

Hourly Weather History & Observations

Time (EEST) Temp. Dew Point Humidity Pressure Visibility Wind Dir Wind Speed Gust Speed Precip Events Conditions
12:30 AM 55.4 °F 48.2 °F 77% 30.21 in 6.2 mi West 4.6 mph - N/A   Unknown
1:00 AM 53.6 °F 46.4 °F 77% 30.21 in 6.2 mi Calm Calm - N/A   Unknown
2:00 AM 53.6 °F 46.4 °F 77% 30.21 in 6.2 mi WSW 3.5 mph - N/A   Unknown
2:30 AM 59.0 °F 48.2 °F 67% 30.21 in 6.2 mi Calm Calm - N/A   Unknown
3:00 AM 53.6 °F 46.4 °F 77% 30.24 in 6.2 mi North 1.2 mph - N/A   Unknown
3:30 AM 53.6 °F 46.4 °F 77% 30.24 in 6.2 mi WNW 3.5 mph - N/A   Unknown
4:00 AM 50.0 °F 44.6 °F 82% 30.24 in 6.2 mi West 3.5 mph - N/A   Unknown
4:30 AM 50.0 °F 44.6 °F 82% 30.21 in 6.2 mi Calm Calm - N/A   Unknown
5:00 AM 50.0 °F 46.4 °F 87% 30.21 in 6.2 mi Calm Calm - N/A   Unknown
5:30 AM 48.2 °F 44.6 °F 87% 30.24 in 6.2 mi Calm Calm - N/A   Unknown
6:00 AM 50.0 °F 46.4 °F 87% 30.24 in 6.2 mi Calm Calm - N/A   Unknown
6:30 AM 48.2 °F 44.6 °F 87% 30.24 in 6.2 mi Calm Calm - N/A   Unknown
7:00 AM 46.4 °F 44.6 °F 93% 30.24 in 6.2 mi Calm Calm - N/A   Unknown
7:30 AM 46.4 °F 42.8 °F 87% 30.24 in 6.2 mi Calm Calm - N/A   Unknown
8:00 AM 51.8 °F 46.4 °F 82% 30.24 in 6.2 mi Calm Calm - N/A   Unknown
8:30 AM 48.2 °F 44.6 °F 87% 30.24 in 6.2 mi Calm Calm - N/A   Unknown
9:00 AM 53.6 °F 48.2 °F 82% 30.27 in 6.2 mi Calm Calm - N/A   Unknown
9:30 AM 57.2 °F 48.2 °F 72% 30.27 in 6.2 mi Calm Calm - N/A   Unknown
10:00 AM 59.0 °F 46.4 °F 63% 30.27 in 6.2 mi NW 4.6 mph - N/A   Unknown
10:30 AM 60.8 °F 48.2 °F 63% 30.27 in 6.2 mi WNW 4.6 mph - N/A   Unknown
11:00 AM 64.4 °F 48.2 °F 56% 30.27 in 6.2 mi Calm Calm - N/A   Unknown
11:30 AM 66.2 °F 48.2 °F 52% 30.27 in 6.2 mi Variable 2.3 mph - N/A   Unknown
12:00 PM 69.8 °F 48.2 °F 46% 30.27 in 6.2 mi Variable 2.3 mph - N/A   Unknown
12:30 PM 71.6 °F 48.2 °F 43% 30.24 in 6.2 mi Variable 2.3 mph - N/A   Unknown
1:00 PM 71.6 °F 48.2 °F 43% 30.24 in 6.2 mi Variable 3.5 mph - N/A   Unknown
1:30 PM 75.2 °F 50.0 °F 41% 30.24 in 6.2 mi Variable 2.3 mph - N/A   Unknown
2:00 PM 75.2 °F 50.0 °F 41% 30.21 in 6.2 mi Variable 3.5 mph - N/A   Unknown
2:30 PM 78.8 °F 48.2 °F 34% 30.21 in 6.2 mi Variable 3.5 mph - N/A   Unknown
3:00 PM 78.8 °F 44.6 °F 30% 30.21 in 6.2 mi SSE 6.9 mph - N/A   Unknown
3:30 PM 78.8 °F 44.6 °F 30% 30.18 in 6.2 mi Variable 5.8 mph - N/A   Unknown
4:00 PM 80.6 °F 44.6 °F 28% 30.18 in 6.2 mi ESE 8.1 mph - N/A   Unknown
4:30 PM 78.8 °F 42.8 °F 28% 30.18 in 6.2 mi SSE 6.9 mph - N/A   Unknown
5:00 PM 78.8 °F 42.8 °F 28% 30.18 in 6.2 mi ESE 8.1 mph - N/A   Unknown
5:30 PM 78.8 °F 44.6 °F 30% 30.18 in 6.2 mi ESE 8.1 mph - N/A   Unknown
6:00 PM 75.2 °F 44.6 °F 34% 30.18 in 6.2 mi East 5.8 mph - N/A   Unknown
6:30 PM 71.6 °F 50.0 °F 46% 30.18 in 6.2 mi ESE 9.2 mph - N/A   Unknown
7:00 PM 68.0 °F 50.0 °F 52% 30.21 in 6.2 mi SE 9.2 mph - N/A   Unknown
7:30 PM 66.2 °F 44.6 °F 46% 30.21 in 6.2 mi SSE 9.2 mph - N/A   Unknown
8:00 PM 66.2 °F 42.8 °F 43% 30.21 in 6.2 mi East 6.9 mph - N/A   Unknown
8:30 PM 64.4 °F 46.4 °F 52% 30.21 in 6.2 mi ESE 9.2 mph - N/A   Unknown
9:00 PM 64.4 °F 41.0 °F 42% 30.21 in 6.2 mi ESE 9.2 mph - N/A   Unknown
9:30 PM 66.2 °F 39.2 °F 37% 30.21 in 6.2 mi ESE 6.9 mph - N/A   Unknown
10:00 PM 66.2 °F 41.0 °F 40% 30.24 in 6.2 mi SE 5.8 mph - N/A   Unknown
10:30 PM 66.2 °F 41.0 °F 40% 30.24 in 6.2 mi SSE 10.4 mph - N/A   Unknown
11:00 PM 66.2 °F 41.0 °F 40% 30.24 in 6.2 mi SSE 10.4 mph - N/A   Unknown
11:30 PM 64.4 °F 41.0 °F 42% 30.24 in 6.2 mi NW 4.6 mph - N/A   Unknown